Time,TemperatureF,DewpointF,PressureIn,WindDirection,WindDirectionDegrees,WindSpeedMPH,WindSpeedGustMPH,Humidity,HourlyPrecipIn,Conditions,Clouds,dailyrainin,SoftwareType,DateUTC
2013-03-11 00:02:00,33.2,33.2,29.59,NNE,23,3.1,6.9,100,0.00,RA,,0.00,WeatherDisplay:10.37,2013-03-11 05:02:00,
2013-03-11 00:08:00,33.1,33.1,29.60,NE,47,3.3,8.1,100,0.00,RA,,0.00,WeatherDisplay:10.37,2013-03-11 05:08:00,
2013-03-11 00:13:00,33.3,33.3,29.59,NE,48,3.1,10.4,100,0.00,OVC,,0.00,WeatherDisplay:10.37,2013-03-11 05:13:00,
2013-03-11 00:18:00,33.0,33.0,29.59,NW,314,6.2,9.2,100,0.00,OVC,,0.00,WeatherDisplay:10.37,2013-03-11 05:18:00,
2013-03-11 00:23:00,33.1,33.1,29.59,North,2,2.7,6.1,100,0.00,OVC,,0.00,WeatherDisplay:10.37,2013-03-11 05:23:00,
2013-03-11 00:28:00,33.1,33.1,29.59,NNE,24,4.6,8.1,100,0.00,OVC,,0.00,WeatherDisplay:10.37,2013-03-11 05:28:00,
2013-03-11 00:33:00,32.9,32.9,29.59,NE,51,6.9,9.2,100,0.00,OVC,,0.00,WeatherDisplay:10.37,2013-03-11 05:33:00,
2013-03-11 00:38:00,32.9,32.9,29.60,NNE,20,2.9,4.6,100,0.00,OVC,,0.00,WeatherDisplay:10.37,2013-03-11 05:38:00,
2013-03-11 00:43:00,32.9,32.9,29.59,ENE,72,5.7,11.5,100,0.00,OVC,,0.00,WeatherDisplay:10.37,2013-03-11 05:43:00,
2013-03-11 00:48:00,33.0,33.0,29.59,ENE,57,5.9,9.2,100,0.00,OVC,,0.00,WeatherDisplay:10.37,2013-03-11 05:48:00,
2013-03-11 00:53:00,32.5,32.5,29.59,NE,36,7.9,11.5,100,0.00,OVC,,0.00,WeatherDisplay:10.37,2013-03-11 05:53:00,
2013-03-11 00:58:00,32.6,32.6,29.58,NE,50,7.3,9.2,100,0.00,OVC,,0.00,WeatherDisplay:10.37,2013-03-11 05:58:00,
2013-03-11 01:03:00,32.7,32.7,29.59,NE,48,0.7,3.5,100,0.00,OVC,,0.00,WeatherDisplay:10.37,2013-03-11 06:03:00,
2013-03-11 01:08:00,32.7,32.7,29.58,NNE,28,6.1,10.4,100,0.00,OVC,,0.00,WeatherDisplay:10.37,2013-03-11 06:08:00,
2013-03-11 01:13:00,32.6,32.6,29.59,NNE,31,1.9,4.6,100,0.00,OVC,,0.00,WeatherDisplay:10.37,2013-03-11 06:13:00,
2013-03-11 01:18:00,32.6,32.6,29.58,NNE,20,5.4,8.1,100,0.00,OVC,,0.00,WeatherDisplay:10.37,2013-03-11 06:18:00,
2013-03-11 01:23:00,32.5,32.5,29.57,NE,40,8.2,12.7,100,0.00,OVC,,0.00,WeatherDisplay:10.37,2013-03-11 06:23:00,
2013-03-11 01:28:00,32.5,32.5,29.58,NE,52,3.8,6.9,100,0.00,OVC,,0.00,WeatherDisplay:10.37,2013-03-11 06:28:00,
2013-03-11 01:33:00,32.6,32.6,29.58,NE,47,1.8,4.8,100,0.00,OVC,,0.00,WeatherDisplay:10.37,2013-03-11 06:33:00,
2013-03-11 01:38:00,32.6,32.6,29.59,NNE,14,1.6,6.9,100,0.00,OVC,,0.00,WeatherDisplay:10.37,2013-03-11 06:38:00,
2013-03-11 01:43:00,32.6,32.6,29.58,East,84,3.7,5.8,100,0.00,OVC,,0.00,WeatherDisplay:10.37,2013-03-11 06:43:00,
2013-03-11 01:48:00,32.5,32.5,29.58,WNW,301,1.5,3.5,100,0.00,OVC,,0.00,WeatherDisplay:10.37,2013-03-11 06:48:00,
2013-03-11 01:53:00,32.5,32.5,29.59,NE,45,0.8,1.1,100,0.00,OVC,,0.00,WeatherDisplay:10.37,2013-03-11 06:53:00,
2013-03-11 01:58:00,32.5,32.5,29.59,NNE,30,1.2,2.3,100,0.00,OVC,,0.00,WeatherDisplay:10.37,2013-03-11 06:58:00,
2013-03-11 02:03:00,32.7,32.7,29.59,North,356,1.3,6.9,100,0.00,OVC,,0.00,WeatherDisplay:10.37,2013-03-11 07:03:00,
2013-03-11 02:08:00,32.6,32.6,29.59,NNW,336,0.0,0.0,100,0.00,OVC,,0.00,WeatherDisplay:10.37,2013-03-11 07:08:00,
2013-03-11 02:13:00,32.5,32.5,29.59,ENE,67,2.6,3.5,100,0.00,OVC,,0.00,WeatherDisplay:10.37,2013-03-11 07:13:00,
2013-03-11 02:18:00,32.5,32.5,29.59,NW,322,1.0,3.5,100,0.00,OVC,,0.00,WeatherDisplay:10.37,2013-03-11 07:18:00,
2013-03-11 02:23:00,32.5,32.5,29.59,NNW,345,0.0,1.1,100,0.00,OVC,,0.00,WeatherDisplay:10.37,2013-03-11 07:23:00,
2013-03-11 02:28:00,32.5,32.5,29.59,North,350,1.2,5.8,100,0.00,OVC,,0.00,WeatherDisplay:10.37,2013-03-11 07:28:00,
2013-03-11 02:33:00,32.6,32.6,29.59,NNW,348,0.6,3.5,100,0.00,OVC,,0.00,WeatherDisplay:10.37,2013-03-11 07:33:00,
2013-03-11 02:38:00,32.2,32.2,29.58,NNE,28,4.2,5.8,100,0.00,OVC,,0.00,WeatherDisplay:10.37,2013-03-11 07:38:00,
2013-03-11 02:43:00,32.1,32.1,29.59,NE,38,3.4,5.8,100,0.00,OVC,,0.00,WeatherDisplay:10.37,2013-03-11 07:43:00,
2013-03-11 02:48:00,32.1,32.1,29.58,NNW,331,0.5,6.9,100,0.00,OVC,,0.00,WeatherDisplay:10.37,2013-03-11 07:48:00,
2013-03-11 02:53:00,32.1,32.1,29.58,NNE,23,0.1,3.5,100,0.00,OVC,,0.00,WeatherDisplay:10.37,2013-03-11 07:53:00,
2013-03-11 02:58:00,32.1,32.1,29.58,NW,322,0.1,2.1,100,0.00,OVC,,0.00,WeatherDisplay:10.37,2013-03-11 07:58:00,
2013-03-11 03:03:00,32.0,32.0,29.57,NNE,12,2.4,4.6,100,0.00,OVC,,0.00,WeatherDisplay:10.37,2013-03-11 08:03:00,
2013-03-11 03:08:00,32.1,32.1,29.57,North,7,1.8,5.8,100,0.00,OVC,,0.00,WeatherDisplay:10.37,2013-03-11 08:08:00,
2013-03-11 03:13:00,32.0,32.0,29.57,North,353,3.8,6.0,100,0.00,OVC,,0.00,WeatherDisplay:10.37,2013-03-11 08:13:00,
2013-03-11 03:18:00,32.0,32.0,29.57,NNW,328,2.7,5.8,100,0.00,OVC,,0.00,WeatherDisplay:10.37,2013-03-11 08:18:00,
2013-03-11 03:23:00,32.0,32.0,29.57,NNE,20,2.1,5.8,100,0.00,OVC,,0.00,WeatherDisplay:10.37,2013-03-11 08:23:00,
2013-03-11 03:28:00,31.8,31.8,29.56,NE,43,1.2,5.8,100,0.00,OVC,,0.00,WeatherDisplay:10.37,2013-03-11 08:28:00,
2013-03-11 03:33:00,31.8,31.8,29.56,NNE,21,1.9,5.8,100,0.00,OVC,,0.00,WeatherDisplay:10.37,2013-03-11 08:33:00,
2013-03-11 03:38:00,31.8,31.8,29.57,North,353,4.3,8.1,100,0.00,OVC,,0.00,WeatherDisplay:10.37,2013-03-11 08:38:00,
2013-03-11 03:43:00,31.8,31.8,29.57,NW,316,0.0,0.0,100,0.00,OVC,,0.00,WeatherDisplay:10.37,2013-03-11 08:43:00,
2013-03-11 03:48:00,31.9,31.9,29.57,North,4,4.3,4.6,100,0.00,OVC,,0.00,WeatherDisplay:10.37,2013-03-11 08:48:00,
2013-03-11 03:53:00,31.8,31.8,29.56,NNE,16,1.2,3.5,100,0.00,OVC,,0.00,WeatherDisplay:10.37,2013-03-11 08:53:00,
2013-03-11 03:58:00,31.9,31.9,29.56,North,352,2.1,5.8,100,0.00,OVC,,0.00,WeatherDisplay:10.37,2013-03-11 08:58:00,
2013-03-11 04:03:00,32.0,32.0,29.56,NNE,14,1.7,1.7,100,0.00,OVC,,0.00,WeatherDisplay:10.37,2013-03-11 09:03:00,
2013-03-11 04:08:00,32.0,32.0,29.56,North,350,3.3,5.8,100,0.00,OVC,,0.00,WeatherDisplay:10.37,2013-03-11 09:08:00,
2013-03-11 04:13:00,31.9,31.9,29.56,NNE,33,0.2,4.6,100,0.00,OVC,,0.00,WeatherDisplay:10.37,2013-03-11 09:13:00,
2013-03-11 04:18:00,32.0,32.0,29.57,North,4,0.0,1.0,100,0.00,OVC,,0.00,WeatherDisplay:10.37,2013-03-11 09:18:00,
2013-03-11 04:23:00,32.0,32.0,29.57,NW,319,0.8,2.3,100,0.00,OVC,,0.00,WeatherDisplay:10.37,2013-03-11 09:23:00,
2013-03-11 04:28:00,32.0,32.0,29.56,NW,312,0.0,0.0,100,0.00,OVC,,0.00,WeatherDisplay:10.37,2013-03-11 09:28:00,
2013-03-11 04:33:00,32.0,32.0,29.56,NW,312,0.9,5.8,100,0.00,OVC,,0.00,WeatherDisplay:10.37,2013-03-11 09:33:00,
2013-03-11 04:38:00,32.0,32.0,29.57,WNW,295,0.0,1.1,100,0.00,OVC,,0.00,WeatherDisplay:10.37,2013-03-11 09:38:00,
2013-03-11 04:43:00,32.0,32.0,29.56,WNW,295,0.0,0.0,100,0.00,OVC,,0.00,WeatherDisplay:10.37,2013-03-11 09:43:00,
2013-03-11 04:48:00,32.0,32.0,29.56,NNW,348,2.5,5.8,100,0.00,OVC,,0.00,WeatherDisplay:10.37,2013-03-11 09:48:00,
2013-03-11 04:53:00,32.0,32.0,29.56,NNW,336,0.9,6.9,100,0.00,OVC,,0.00,WeatherDisplay:10.37,2013-03-11 09:53:00,
2013-03-11 04:58:00,32.0,32.0,29.56,NNW,329,0.3,2.3,100,0.00,OVC,,0.00,WeatherDisplay:10.37,2013-03-11 09:58:00,
2013-03-11 05:03:00,31.8,31.8,29.56,North,3,0.5,3.5,100,0.00,OVC,,0.00,WeatherDisplay:10.37,2013-03-11 10:03:00,
2013-03-11 05:08:00,32.0,32.0,29.56,North,9,1.3,4.6,100,0.00,OVC,,0.00,WeatherDisplay:10.37,2013-03-11 10:08:00,
2013-03-11 05:13:00,31.9,31.9,29.56,NNE,30,0.3,3.5,100,0.00,OVC,,0.00,WeatherDisplay:10.37,2013-03-11 10:13:00,
2013-03-11 05:18:00,31.9,31.9,29.56,NNE,19,0.0,0.0,100,0.00,OVC,,0.00,WeatherDisplay:10.37,2013-03-11 10:18:00,
2013-03-11 05:23:00,32.1,32.1,29.56,North,352,0.8,2.3,100,0.00,OVC,,0.00,WeatherDisplay:10.37,2013-03-11 10:23:00,
2013-03-11 05:28:00,32.1,32.1,29.56,North,3,0.0,0.0,100,0.00,OVC,,0.00,WeatherDisplay:10.37,2013-03-11 10:28:00,
2013-03-11 05:33:00,32.0,32.0,29.56,NNE,12,0.0,0.0,100,0.00,OVC,,0.00,WeatherDisplay:10.37,2013-03-11 10:33:00,
2013-03-11 05:38:00,31.8,31.8,29.56,North,4,1.8,3.5,100,0.00,OVC,,0.00,WeatherDisplay:10.37,2013-03-11 10:38:00,
2013-03-11 05:43:00,31.9,31.9,29.56,North,349,0.4,3.7,100,0.00,OVC,,0.00,WeatherDisplay:10.37,2013-03-11 10:43:00,
2013-03-11 05:48:00,31.8,31.8,29.57,NNW,348,2.5,4.6,100,0.00,OVC,,0.00,WeatherDisplay:10.37,2013-03-11 10:48:00,
2013-03-11 05:53:00,31.7,31.7,29.57,NNW,342,4.8,4.8,100,0.00,OVC,,0.00,WeatherDisplay:10.37,2013-03-11 10:53:00,
2013-03-11 05:58:00,32.0,32.0,29.57,North,6,0.0,2.3,100,0.00,OVC,,0.00,WeatherDisplay:10.37,2013-03-11 10:58:00,
2013-03-11 06:04:00,31.8,31.8,29.57,NNW,335,0.5,3.4,100,0.00,OVC,,0.00,WeatherDisplay:10.37,2013-03-11 11:04:00,
2013-03-11 06:09:00,31.8,31.8,29.57,North,6,3.0,5.0,100,0.00,OVC,,0.00,WeatherDisplay:10.37,2013-03-11 11:09:00,
2013-03-11 06:14:00,31.9,31.9,29.57,NNE,23,0.0,0.0,100,0.00,OVC,,0.00,WeatherDisplay:10.37,2013-03-11 11:14:00,
2013-03-11 06:19:00,31.8,31.8,29.56,NW,309,0.0,0.0,100,0.00,OVC,,0.00,WeatherDisplay:10.37,2013-03-11 11:19:00,
2013-03-11 06:24:00,32.0,32.0,29.56,North,349,0.2,1.1,100,0.00,OVC,,0.00,WeatherDisplay:10.37,2013-03-11 11:24:00,
2013-03-11 06:29:00,31.9,31.9,29.56,NNE,13,0.5,1.1,100,0.00,OVC,,0.00,WeatherDisplay:10.37,2013-03-11 11:29:00,
2013-03-11 06:34:00,31.9,31.9,29.56,North,9,2.4,5.8,100,0.00,OVC,,0.00,WeatherDisplay:10.37,2013-03-11 11:34:00,
2013-03-11 06:39:00,31.9,31.9,29.57,NNE,31,1.2,5.8,100,0.00,OVC,,0.00,WeatherDisplay:10.37,2013-03-11 11:39:00,
2013-03-11 06:44:00,31.8,31.8,29.57,ENE,58,3.8,6.9,100,0.00,OVC,,0.00,WeatherDisplay:10.37,2013-03-11 11:44:00,
2013-03-11 06:49:00,31.8,31.8,29.57,North,349,2.1,5.8,100,0.00,OVC,,0.00,WeatherDisplay:10.37,2013-03-11 11:49:00,
2013-03-11 06:54:00,31.7,31.7,29.57,North,4,3.7,8.1,100,0.00,OVC,,0.00,WeatherDisplay:10.37,2013-03-11 11:54:00,
2013-03-11 06:59:00,31.7,31.7,29.57,North,10,1.9,6.7,100,0.00,OVC,,0.00,WeatherDisplay:10.37,2013-03-11 11:59:00,
2013-03-11 07:04:00,31.6,31.6,29.57,NNW,336,4.1,8.1,100,0.00,OVC,,0.00,WeatherDisplay:10.37,2013-03-11 12:04:00,
2013-03-11 07:09:00,31.6,31.6,29.57,NNW,339,2.3,6.9,100,0.00,OVC,,0.00,WeatherDisplay:10.37,2013-03-11 12:09:00,
2013-03-11 07:14:00,31.6,31.6,29.57,NNE,13,0.7,2.3,100,0.00,OVC,,0.00,WeatherDisplay:10.37,2013-03-11 12:14:00,
2013-03-11 07:19:00,31.7,31.7,29.57,ENE,60,0.8,2.3,100,0.00,OVC,,0.00,WeatherDisplay:10.37,2013-03-11 12:19:00,
2013-03-11 07:24:00,31.7,31.7,29.57,NW,324,0.0,0.0,100,0.00,OVC,,0.00,WeatherDisplay:10.37,2013-03-11 12:24:00,
2013-03-11 07:29:00,31.6,31.6,29.58,North,6,0.9,3.5,100,0.00,OVC,,0.00,WeatherDisplay:10.37,2013-03-11 12:29:00,
2013-03-11 07:34:00,31.6,31.6,29.58,NNE,30,0.4,3.5,100,0.00,OVC,,0.00,WeatherDisplay:10.37,2013-03-11 12:34:00,
2013-03-11 07:39:00,31.7,31.7,29.58,North,360,0.3,1.1,100,0.00,OVC,,0.00,WeatherDisplay:10.37,2013-03-11 12:39:00,
2013-03-11 07:44:00,31.7,31.7,29.58,North,4,0.0,0.8,100,0.00,OVC,,0.00,WeatherDisplay:10.37,2013-03-11 12:44:00,
2013-03-11 07:49:00,31.5,31.5,29.58,NNE,31,0.0,0.0,100,0.00,OVC,,0.00,WeatherDisplay:10.37,2013-03-11 12:49:00,
2013-03-11 07:54:00,31.6,31.6,29.58,NNE,31,0.0,0.0,100,0.00,OVC,,0.00,WeatherDisplay:10.37,2013-03-11 12:54:00,
2013-03-11 07:59:00,31.6,31.6,29.58,NNE,31,0.0,0.0,100,0.00,OVC,,0.00,WeatherDisplay:10.37,2013-03-11 12:59:00,
2013-03-11 08:04:00,31.7,31.7,29.59,NNE,31,0.0,0.0,100,0.00,OVC,,0.00,WeatherDisplay:10.37,2013-03-11 13:04:00,
2013-03-11 08:09:00,31.5,31.5,29.58,East,99,0.2,1.1,100,0.00,OVC,,0.00,WeatherDisplay:10.37,2013-03-11 13:09:00,
2013-03-11 08:14:00,31.6,31.6,29.58,East,99,0.0,0.0,100,0.00,OVC,,0.00,WeatherDisplay:10.37,2013-03-11 13:14:00,
2013-03-11 08:19:00,31.6,31.6,29.58,NW,311,1.0,3.5,100,0.00,OVC,,0.00,WeatherDisplay:10.37,2013-03-11 13:19:00,
2013-03-11 08:24:00,31.8,31.8,29.57,North,359,0.9,2.3,100,0.00,OVC,,0.00,WeatherDisplay:10.37,2013-03-11 13:24:00,
2013-03-11 08:29:00,31.8,31.8,29.57,WNW,302,1.6,2.3,100,0.00,OVC,,0.00,WeatherDisplay:10.37,2013-03-11 13:29:00,
2013-03-11 08:34:00,31.8,31.8,29.57,WNW,292,2.1,3.5,100,0.00,OVC,,0.00,WeatherDisplay:10.37,2013-03-11 13:34:00,
2013-03-11 08:39:00,31.8,31.8,29.57,NNW,333,0.2,2.3,100,0.00,OVC,,0.00,WeatherDisplay:10.37,2013-03-11 13:39:00,
2013-03-11 08:44:00,31.8,31.8,29.57,West,263,0.2,2.3,100,0.00,OVC,,0.00,WeatherDisplay:10.37,2013-03-11 13:44:00,
2013-03-11 08:49:00,31.7,31.7,29.57,WNW,302,2.3,5.8,100,0.00,OVC,,0.00,WeatherDisplay:10.37,2013-03-11 13:49:00,
2013-03-11 08:54:00,31.7,31.7,29.57,NNW,335,0.4,1.3,100,0.00,OVC,,0.00,WeatherDisplay:10.37,2013-03-11 13:54:00,
2013-03-11 08:59:00,31.7,31.7,29.57,NNE,13,2.8,6.9,100,0.00,OVC,,0.00,WeatherDisplay:10.37,2013-03-11 13:59:00,
2013-03-11 09:04:00,31.7,31.7,29.57,NW,305,1.5,4.6,100,0.00,OVC,,0.00,WeatherDisplay:10.37,2013-03-11 14:04:00,
2013-03-11 09:09:00,31.7,31.7,29.57,WNW,288,0.8,4.6,100,0.00,OVC,,0.00,WeatherDisplay:10.37,2013-03-11 14:09:00,
2013-03-11 09:14:00,31.7,31.7,29.56,NNE,20,3.8,6.9,100,0.00,OVC,,0.00,WeatherDisplay:10.37,2013-03-11 14:14:00,
2013-03-11 09:19:00,31.6,31.6,29.56,NNE,21,2.3,5.8,100,0.00,OVC,,0.00,WeatherDisplay:10.37,2013-03-11 14:19:00,
2013-03-11 09:24:00,31.7,31.7,29.56,NNW,331,0.5,2.3,100,0.00,OVC,,0.00,WeatherDisplay:10.37,2013-03-11 14:24:00,
2013-03-11 09:29:00,31.6,31.6,29.57,NNW,331,0.0,0.0,100,0.00,OVC,,0.00,WeatherDisplay:10.37,2013-03-11 14:29:00,
2013-03-11 09:34:00,31.5,31.5,29.57,NW,326,3.7,6.9,100,0.00,OVC,,0.00,WeatherDisplay:10.37,2013-03-11 14:34:00,
2013-03-11 09:39:00,31.4,31.4,29.57,West,280,3.0,5.8,100,0.00,OVC,,0.00,WeatherDisplay:10.37,2013-03-11 14:39:00,
2013-03-11 09:44:00,31.4,31.4,29.57,North,353,3.4,6.4,100,0.00,OVC,,0.00,WeatherDisplay:10.37,2013-03-11 14:44:00,
2013-03-11 09:49:00,31.3,31.3,29.57,NNW,336,3.5,6.9,100,0.00,OVC,,0.00,WeatherDisplay:10.37,2013-03-11 14:49:00,
2013-03-11 09:54:00,31.3,31.3,29.56,North,2,2.0,5.8,100,0.00,OVC,,0.00,WeatherDisplay:10.37,2013-03-11 14:54:00,
2013-03-11 09:59:00,31.3,31.3,29.56,NNW,333,3.0,6.9,100,0.00,OVC,,0.00,WeatherDisplay:10.37,2013-03-11 14:59:00,
2013-03-11 10:04:00,31.3,31.3,29.56,NE,34,2.5,4.6,100,0.00,-SN,,0.00,WeatherDisplay:10.37,2013-03-11 15:04:00,
2013-03-11 10:09:00,31.4,31.4,29.56,NNW,338,0.1,2.3,100,0.00,-SN,,0.00,WeatherDisplay:10.37,2013-03-11 15:09:00,
2013-03-11 10:14:00,31.5,31.5,29.56,North,349,0.8,2.3,100,0.00,-SN,,0.00,WeatherDisplay:10.37,2013-03-11 15:14:00,
2013-03-11 10:19:00,31.5,31.5,29.55,North,359,2.1,3.7,100,0.00,-SN,,0.00,WeatherDisplay:10.37,2013-03-11 15:19:00,
2013-03-11 10:24:00,31.5,31.5,29.56,NNW,333,0.4,1.5,100,0.00,-SN,,0.00,WeatherDisplay:10.37,2013-03-11 15:24:00,
2013-03-11 10:29:00,31.4,31.4,29.55,NNE,20,4.1,6.9,100,0.00,-SN,,0.00,WeatherDisplay:10.37,2013-03-11 15:29:00,
2013-03-11 10:34:00,31.6,31.6,29.55,NNW,329,1.7,3.5,100,0.00,-SN,,0.00,WeatherDisplay:10.37,2013-03-11 15:34:00,
2013-03-11 10:39:00,31.6,31.6,29.55,NW,321,2.0,5.8,100,0.00,-SN,,0.00,WeatherDisplay:10.37,2013-03-11 15:39:00,
2013-03-11 10:44:00,31.5,31.5,29.55,North,356,3.5,6.9,100,0.00,-SN,,0.00,WeatherDisplay:10.37,2013-03-11 15:44:00,
2013-03-11 10:49:00,31.6,31.6,29.55,North,359,3.3,5.8,100,0.00,-SN,,0.00,WeatherDisplay:10.37,2013-03-11 15:49:00,
2013-03-11 10:54:00,31.7,31.7,29.55,NNW,345,0.1,0.0,100,0.00,-SN,,0.00,WeatherDisplay:10.37,2013-03-11 15:54:00,
2013-03-11 10:59:00,31.5,31.5,29.55,WNW,285,2.3,5.8,100,0.00,-SN,,0.00,WeatherDisplay:10.37,2013-03-11 15:59:00,
2013-03-11 11:04:00,31.4,31.4,29.55,North,356,1.5,4.6,100,0.00,-SN,,0.00,WeatherDisplay:10.37,2013-03-11 16:04:00,
2013-03-11 11:09:00,31.5,31.5,29.55,NNE,33,0.4,3.5,100,0.00,-SN,,0.00,WeatherDisplay:10.37,2013-03-11 16:09:00,
2013-03-11 11:14:00,31.4,31.4,29.55,NNW,339,0.7,3.5,100,0.00,-SN,,0.00,WeatherDisplay:10.37,2013-03-11 16:14:00,
2013-03-11 11:19:00,31.6,31.6,29.55,NNW,339,2.0,3.9,100,0.00,-SN,,0.00,WeatherDisplay:10.37,2013-03-11 16:19:00,
2013-03-11 11:24:00,31.5,31.5,29.55,West,267,0.0,3.5,100,0.00,-SN,,0.00,WeatherDisplay:10.37,2013-03-11 16:24:00,
2013-03-11 11:29:00,31.2,31.2,29.55,WNW,288,1.9,4.7,100,0.00,-SN,,0.00,WeatherDisplay:10.37,2013-03-11 16:29:00,
2013-03-11 11:34:00,31.3,31.3,29.56,North,350,3.5,5.8,100,0.00,-SN,,0.00,WeatherDisplay:10.37,2013-03-11 16:34:00,
2013-03-11 11:39:00,31.3,31.3,29.55,NW,309,3.0,4.6,100,0.00,-SN,,0.00,WeatherDisplay:10.37,2013-03-11 16:39:00,
2013-03-11 11:44:00,31.0,31.0,29.56,NNW,332,5.3,9.2,100,0.00,-SN,,0.00,WeatherDisplay:10.37,2013-03-11 16:44:00,
2013-03-11 11:49:00,31.1,31.1,29.55,North,349,3.5,9.2,100,0.00,-SN,,0.00,WeatherDisplay:10.37,2013-03-11 16:49:00,
2013-03-11 11:54:00,31.2,31.2,29.55,NNE,16,2.4,4.6,100,0.00,-SN,,0.00,WeatherDisplay:10.37,2013-03-11 16:54:00,
2013-03-11 11:59:00,30.8,30.8,29.55,NW,304,5.2,6.9,100,0.00,-SN,,0.00,WeatherDisplay:10.37,2013-03-11 16:59:00,
2013-03-11 12:04:00,31.1,31.1,29.55,NNW,328,2.5,5.8,100,0.00,-SN,,0.00,WeatherDisplay:10.37,2013-03-11 17:04:00,
2013-03-11 12:09:00,31.2,31.2,29.55,NW,318,3.3,5.5,100,0.00,-SN,,0.00,WeatherDisplay:10.37,2013-03-11 17:09:00,
2013-03-11 12:14:00,31.0,31.0,29.55,NW,307,4.9,6.9,100,0.00,-SN,,0.00,WeatherDisplay:10.37,2013-03-11 17:14:00,
2013-03-11 12:19:00,31.1,31.1,29.55,West,277,2.6,6.9,100,0.00,-SN,,0.00,WeatherDisplay:10.37,2013-03-11 17:19:00,
2013-03-11 12:24:00,30.9,30.9,29.55,NNW,333,6.4,10.4,100,0.00,-SN,,0.00,WeatherDisplay:10.37,2013-03-11 17:24:00,
2013-03-11 12:29:00,30.9,30.9,29.55,NNW,338,3.8,10.4,100,0.00,-SN,,0.00,WeatherDisplay:10.37,2013-03-11 17:29:00,
2013-03-11 12:34:00,30.9,30.9,29.55,NW,305,4.5,6.9,100,0.00,-SN,,0.00,WeatherDisplay:10.37,2013-03-11 17:34:00,
2013-03-11 12:39:00,30.8,30.8,29.55,NW,304,5.5,8.1,100,0.00,-SN,,0.00,WeatherDisplay:10.37,2013-03-11 17:39:00,
2013-03-11 12:44:00,31.1,31.1,29.55,NW,324,4.2,9.2,100,0.00,-SN,,0.00,WeatherDisplay:10.37,2013-03-11 17:44:00,
2013-03-11 12:49:00,31.0,31.0,29.55,WNW,285,5.2,8.1,100,0.00,-SN,,0.00,WeatherDisplay:10.37,2013-03-11 17:49:00,
2013-03-11 12:54:00,31.3,31.3,29.55,WNW,287,3.3,5.8,100,0.00,-SN,,0.00,WeatherDisplay:10.37,2013-03-11 17:54:00,
2013-03-11 12:59:00,31.4,31.4,29.55,NW,315,2.2,6.9,100,0.00,-SN,,0.00,WeatherDisplay:10.37,2013-03-11 17:59:00,
2013-03-11 13:04:00,31.6,31.6,29.55,WNW,298,4.1,6.4,100,0.00,-SN,,0.00,WeatherDisplay:10.37,2013-03-11 18:04:00,
2013-03-11 13:09:00,31.7,31.7,29.55,NNW,339,3.7,4.3,100,0.00,-SN,,0.00,WeatherDisplay:10.37,2013-03-11 18:09:00,
2013-03-11 13:14:00,31.8,31.8,29.55,NW,315,3.3,8.1,100,0.00,-SN,,0.00,WeatherDisplay:10.37,2013-03-11 18:14:00,
2013-03-11 13:19:00,31.8,31.8,29.54,NW,308,4.1,9.2,100,0.00,-SN,,0.00,WeatherDisplay:10.37,2013-03-11 18:19:00,
2013-03-11 13:24:00,31.9,31.9,29.54,WNW,297,4.6,6.9,100,0.00,-SN,,0.00,WeatherDisplay:10.37,2013-03-11 18:24:00,
2013-03-11 13:29:00,31.7,31.7,29.54,WNW,288,5.6,11.5,100,0.00,-SN,,0.00,WeatherDisplay:10.37,2013-03-11 18:29:00,
2013-03-11 13:34:00,31.8,31.8,29.54,NW,321,6.5,8.1,100,0.00,-SN,,0.00,WeatherDisplay:10.37,2013-03-11 18:34:00,
2013-03-11 13:39:00,32.0,32.0,29.54,NNW,342,3.2,5.8,100,0.00,-SN,,0.00,WeatherDisplay:10.37,2013-03-11 18:39:00,
2013-03-11 13:44:00,32.0,32.0,29.54,WSW,237,4.6,6.9,100,0.00,-SN,,0.00,WeatherDisplay:10.37,2013-03-11 18:44:00,
2013-03-11 13:49:00,31.8,31.8,29.54,West,270,4.5,9.2,100,0.00,-SN,,0.00,WeatherDisplay:10.37,2013-03-11 18:49:00,
2013-03-11 13:54:00,31.6,31.6,29.54,West,270,5.6,9.1,100,0.00,-SN,,0.00,WeatherDisplay:10.37,2013-03-11 18:54:00,
2013-03-11 13:59:00,31.5,31.5,29.54,NW,311,6.5,9.2,100,0.00,-SN,,0.00,WeatherDisplay:10.37,2013-03-11 18:59:00,
2013-03-11 14:04:00,31.7,31.7,29.54,NW,308,5.3,9.2,100,0.00,-SN,,0.00,WeatherDisplay:10.37,2013-03-11 19:04:00,
2013-03-11 14:09:00,31.5,31.5,29.53,NW,314,5.6,9.2,100,0.00,-SN,,0.00,WeatherDisplay:10.37,2013-03-11 19:09:00,
2013-03-11 14:14:00,31.8,31.8,29.53,NW,326,5.6,7.1,100,0.00,-SN,,0.00,WeatherDisplay:10.37,2013-03-11 19:14:00,
2013-03-11 14:19:00,31.7,31.7,29.53,WNW,297,5.2,8.1,100,0.00,-SN,,0.00,WeatherDisplay:10.37,2013-03-11 19:19:00,
2013-03-11 14:24:00,31.7,31.7,29.54,West,264,5.5,6.9,100,0.00,-SN,,0.00,WeatherDisplay:10.37,2013-03-11 19:24:00,
2013-03-11 14:29:00,31.6,31.6,29.54,WNW,284,7.3,10.4,100,0.00,-SN,,0.00,WeatherDisplay:10.37,2013-03-11 19:29:00,
2013-03-11 14:34:00,31.4,31.4,29.53,West,274,7.6,10.4,100,0.00,-SN,,0.00,WeatherDisplay:10.37,2013-03-11 19:34:00,
2013-03-11 14:39:00,31.8,31.8,29.53,North,2,3.4,5.8,100,0.00,-SN,,0.00,WeatherDisplay:10.37,2013-03-11 19:39:00,
2013-03-11 14:44:00,31.4,31.4,29.53,NW,315,6.4,13.8,100,0.00,-SN,,0.00,WeatherDisplay:10.37,2013-03-11 19:44:00,
2013-03-11 14:49:00,31.5,31.5,29.54,West,277,6.3,7.6,100,0.00,-SN,,0.00,WeatherDisplay:10.37,2013-03-11 19:49:00,
2013-03-11 14:54:00,31.7,31.7,29.53,NW,308,5.1,10.4,100,0.00,-SN,,0.00,WeatherDisplay:10.37,2013-03-11 19:54:00,
2013-03-11 14:59:00,31.8,31.8,29.54,NW,309,6.1,8.1,100,0.00,-SN,,0.00,WeatherDisplay:10.37,2013-03-11 19:59:00,
2013-03-11 15:04:00,31.7,31.7,29.54,WNW,301,8.5,14.3,100,0.00,-SN,,0.00,WeatherDisplay:10.37,2013-03-11 20:04:00,
2013-03-11 15:09:00,31.6,31.6,29.54,NW,312,8.8,12.7,100,0.00,-SN,,0.00,WeatherDisplay:10.37,2013-03-11 20:09:00,
2013-03-11 15:14:00,31.7,31.7,29.54,NNW,342,7.7,11.5,100,0.00,-SN,,0.00,WeatherDisplay:10.37,2013-03-11 20:14:00,
2013-03-11 15:19:00,31.7,31.7,29.54,WNW,288,6.6,10.4,100,0.00,-SN,,0.00,WeatherDisplay:10.37,2013-03-11 20:19:00,
2013-03-11 15:24:00,31.8,31.8,29.54,West,259,5.9,12.7,100,0.00,-SN,,0.00,WeatherDisplay:10.37,2013-03-11 20:24:00,
2013-03-11 15:29:00,31.5,31.5,29.54,West,268,5.7,12.7,100,0.00,-SN,,0.00,WeatherDisplay:10.37,2013-03-11 20:29:00,
2013-03-11 15:34:00,31.5,31.5,29.54,NW,311,7.3,12.7,100,0.00,-SN,,0.00,WeatherDisplay:10.37,2013-03-11 20:34:00,
2013-03-11 15:39:00,31.4,31.4,29.55,NW,312,7.0,10.4,100,0.00,-SN,,0.00,WeatherDisplay:10.37,2013-03-11 20:39:00,
2013-03-11 15:44:00,31.3,31.3,29.55,WNW,285,7.6,9.0,100,0.00,-SN,,0.00,WeatherDisplay:10.37,2013-03-11 20:44:00,
2013-03-11 15:49:00,31.3,31.3,29.54,NW,312,6.9,13.8,100,0.00,-SN,,0.00,WeatherDisplay:10.37,2013-03-11 20:49:00,
2013-03-11 15:54:00,31.4,31.4,29.55,NNW,332,7.4,11.8,100,0.00,-SN,,0.00,WeatherDisplay:10.37,2013-03-11 20:54:00,
2013-03-11 15:59:00,31.2,31.2,29.55,West,267,7.7,12.7,100,0.00,-SN,,0.00,WeatherDisplay:10.37,2013-03-11 20:59:00,
2013-03-11 16:04:00,31.2,31.2,29.55,West,277,6.6,11.5,100,0.00,-SN,,0.00,WeatherDisplay:10.37,2013-03-11 21:04:00,
2013-03-11 16:09:00,31.2,31.2,29.55,NW,309,5.7,8.1,100,0.00,-SN,,0.00,WeatherDisplay:10.37,2013-03-11 21:09:00,
2013-03-11 16:14:00,31.1,31.1,29.55,WNW,298,7.0,10.4,100,0.00,-SN,,0.00,WeatherDisplay:10.37,2013-03-11 21:14:00,
2013-03-11 16:19:00,31.2,31.2,29.55,NW,309,5.6,11.5,100,0.00,-SN,,0.00,WeatherDisplay:10.37,2013-03-11 21:19:00,
2013-03-11 16:24:00,31.2,31.2,29.56,NW,321,6.3,10.4,100,0.00,-SN,,0.00,WeatherDisplay:10.37,2013-03-11 21:24:00,
2013-03-11 16:29:00,31.2,31.2,29.56,WNW,287,6.3,15.0,100,0.00,-SN,,0.00,WeatherDisplay:10.37,2013-03-11 21:29:00,
2013-03-11 16:34:00,31.3,31.3,29.56,NNW,338,6.3,8.4,100,0.00,-SN,,0.00,WeatherDisplay:10.37,2013-03-11 21:34:00,
2013-03-11 16:39:00,31.2,31.2,29.56,West,270,6.7,10.4,100,0.00,-SN,,0.00,WeatherDisplay:10.37,2013-03-11 21:39:00,
2013-03-11 16:44:00,30.8,30.8,29.56,WNW,302,9.3,17.3,100,0.00,-SN,,0.00,WeatherDisplay:10.37,2013-03-11 21:44:00,
2013-03-11 16:49:00,31.0,31.0,29.56,WNW,288,7.9,10.4,100,0.00,-SN,,0.00,WeatherDisplay:10.37,2013-03-11 21:49:00,
2013-03-11 16:54:00,31.2,31.2,29.56,WNW,301,5.3,10.7,100,0.00,-SN,,0.00,WeatherDisplay:10.37,2013-03-11 21:54:00,
2013-03-11 16:59:00,31.1,31.1,29.56,North,357,8.0,16.1,100,0.00,-SN,,0.00,WeatherDisplay:10.37,2013-03-11 21:59:00,
2013-03-11 17:04:00,31.1,31.1,29.56,NW,324,4.0,9.2,100,0.00,-SN,,0.00,WeatherDisplay:10.37,2013-03-11 22:04:00,
2013-03-11 17:09:00,31.0,31.0,29.56,NNW,335,6.2,10.4,100,0.00,-SN,,0.00,WeatherDisplay:10.37,2013-03-11 22:09:00,
2013-03-11 17:14:00,30.9,30.9,29.56,NW,312,7.1,13.8,100,0.00,-SN,,0.00,WeatherDisplay:10.37,2013-03-11 22:14:00,
2013-03-11 17:19:00,30.8,30.8,29.57,WNW,301,7.7,10.6,100,0.00,-SN,,0.00,WeatherDisplay:10.37,2013-03-11 22:19:00,
2013-03-11 17:24:00,30.7,30.7,29.57,NW,315,8.3,12.7,100,0.00,-SN,,0.00,WeatherDisplay:10.37,2013-03-11 22:24:00,
2013-03-11 17:29:00,30.8,30.8,29.57,North,357,7.1,12.7,100,0.00,-SN,,0.00,WeatherDisplay:10.37,2013-03-11 22:29:00,
2013-03-11 17:34:00,30.9,30.9,29.57,NNE,12,5.3,9.2,100,0.00,-SN,,0.00,WeatherDisplay:10.37,2013-03-11 22:34:00,
2013-03-11 17:39:00,30.8,30.8,29.57,NW,315,7.1,12.7,100,0.00,-SN,,0.00,WeatherDisplay:10.37,2013-03-11 22:39:00,
2013-03-11 17:44:00,30.6,30.6,29.58,NNW,346,8.7,10.8,100,0.00,-SN,,0.00,WeatherDisplay:10.37,2013-03-11 22:44:00,
2013-03-11 17:49:00,30.5,30.5,29.57,NNW,336,8.5,11.5,100,0.00,-SN,,0.00,WeatherDisplay:10.37,2013-03-11 22:49:00,
2013-03-11 17:54:00,30.5,30.5,29.57,NW,312,6.4,15.0,100,0.00,-SN,,0.00,WeatherDisplay:10.37,2013-03-11 22:54:00,
2013-03-11 17:59:00,30.8,30.8,29.58,NNE,21,5.6,10.4,100,0.00,-SN,,0.00,WeatherDisplay:10.37,2013-03-11 22:59:00,
2013-03-11 18:04:00,30.7,30.7,29.59,NW,325,5.6,10.4,100,0.00,-SN,,0.00,WeatherDisplay:10.37,2013-03-11 23:04:00,
2013-03-11 18:09:00,30.8,30.8,29.59,WNW,302,6.1,12.4,100,0.00,-SN,,0.00,WeatherDisplay:10.37,2013-03-11 23:09:00,
2013-03-11 18:14:00,31.0,31.0,29.59,NW,315,2.3,9.2,100,0.00,-SN,,0.00,WeatherDisplay:10.37,2013-03-11 23:14:00,
2013-03-11 18:19:00,30.7,30.7,29.59,NE,36,8.2,15.0,100,0.00,-SN,,0.00,WeatherDisplay:10.37,2013-03-11 23:19:00,
2013-03-11 18:24:00,30.7,30.7,29.60,North,350,7.5,7.5,100,0.00,-SN,,0.00,WeatherDisplay:10.37,2013-03-11 23:24:00,
2013-03-11 18:29:00,30.7,30.7,29.60,NNW,332,5.2,9.2,100,0.00,-SN,,0.00,WeatherDisplay:10.37,2013-03-11 23:29:00,
2013-03-11 18:34:00,30.7,30.7,29.60,WNW,295,6.3,15.0,100,0.00,-SN,,0.00,WeatherDisplay:10.37,2013-03-11 23:34:00,
2013-03-11 18:39:00,30.7,30.7,29.60,NW,308,9.2,12.7,100,0.00,-SN,,0.00,WeatherDisplay:10.37,2013-03-11 23:39:00,
2013-03-11 18:44:00,30.7,30.7,29.61,North,356,7.4,15.0,100,0.00,-SN,,0.00,WeatherDisplay:10.37,2013-03-11 23:44:00,
2013-03-11 18:49:00,30.7,30.7,29.61,West,263,9.4,13.8,100,0.00,-SN,,0.00,WeatherDisplay:10.37,2013-03-11 23:49:00,
2013-03-11 18:54:00,30.7,30.7,29.62,NW,314,8.2,15.0,100,0.00,-SN,,0.00,WeatherDisplay:10.37,2013-03-11 23:54:00,
2013-03-11 18:59:00,30.8,30.8,29.62,WNW,291,6.4,12.7,100,0.00,-SN,,0.00,WeatherDisplay:10.37,2013-03-11 23:59:00,
2013-03-11 19:04:00,30.7,30.7,29.63,ENE,62,8.0,12.7,100,0.00,OVC,,0.00,WeatherDisplay:10.37,2013-03-12 00:04:00,
2013-03-11 19:09:00,30.6,30.6,29.63,North,353,8.5,13.8,100,0.00,OVC,,0.00,WeatherDisplay:10.37,2013-03-12 00:09:00,
2013-03-11 19:14:00,30.5,30.5,29.63,WNW,298,6.4,9.4,100,0.00,OVC,,0.00,WeatherDisplay:10.37,2013-03-12 00:14:00,
2013-03-11 19:19:00,30.5,30.5,29.63,WNW,284,4.6,6.9,100,0.00,OVC,,0.00,WeatherDisplay:10.37,2013-03-12 00:19:00,
2013-03-11 19:24:00,30.4,30.4,29.64,WNW,300,5.2,9.2,100,0.00,OVC,,0.00,WeatherDisplay:10.37,2013-03-12 00:24:00,
2013-03-11 19:29:00,30.2,30.2,29.64,NW,318,6.3,13.8,100,0.00,OVC,,0.00,WeatherDisplay:10.37,2013-03-12 00:29:00,
2013-03-11 19:34:00,30.2,30.2,29.65,NNW,329,3.8,6.9,100,0.00,OVC,,0.00,WeatherDisplay:10.37,2013-03-12 00:34:00,
2013-03-11 19:39:00,29.9,29.9,29.64,WSW,243,6.4,11.5,100,0.00,OVC,,0.00,WeatherDisplay:10.37,2013-03-12 00:39:00,
2013-03-11 19:44:00,30.0,30.0,29.65,NW,307,5.7,9.3,100,0.00,OVC,,0.00,WeatherDisplay:10.37,2013-03-12 00:44:00,
2013-03-11 19:49:00,30.2,30.2,29.65,WSW,253,2.5,5.8,100,0.00,OVC,,0.00,WeatherDisplay:10.37,2013-03-12 00:49:00,
2013-03-11 19:54:00,29.9,29.9,29.65,WSW,249,6.9,8.3,100,0.00,OVC,,0.00,WeatherDisplay:10.37,2013-03-12 00:54:00,
2013-03-11 19:59:00,29.9,29.9,29.66,WNW,302,7.0,9.4,100,0.00,OVC,,0.00,WeatherDisplay:10.37,2013-03-12 00:59:00,
2013-03-11 20:04:00,30.0,30.0,29.66,WNW,294,4.8,6.9,100,0.00,-SN,,0.00,WeatherDisplay:10.37,2013-03-12 01:04:00,
2013-03-11 20:09:00,29.9,29.9,29.66,WNW,297,3.6,9.2,100,0.00,-SN,,0.00,WeatherDisplay:10.37,2013-03-12 01:09:00,
2013-03-11 20:14:00,30.0,30.0,29.67,NW,307,4.6,6.9,100,0.00,-SN,,0.00,WeatherDisplay:10.37,2013-03-12 01:14:00,
2013-03-11 20:19:00,30.1,30.1,29.67,West,259,6.5,9.2,100,0.00,-SN,,0.00,WeatherDisplay:10.37,2013-03-12 01:19:00,
2013-03-11 20:24:00,30.1,30.1,29.67,West,267,4.5,6.6,100,0.00,-SN,,0.00,WeatherDisplay:10.37,2013-03-12 01:24:00,
2013-03-11 20:29:00,30.2,30.2,29.67,NNW,335,2.0,6.9,100,0.00,-SN,,0.00,WeatherDisplay:10.37,2013-03-12 01:29:00,
2013-03-11 20:34:00,30.3,30.3,29.67,NW,304,3.8,8.1,100,0.00,-SN,,0.00,WeatherDisplay:10.37,2013-03-12 01:34:00,
2013-03-11 20:39:00,30.5,30.5,29.67,NW,308,4.5,4.6,100,0.00,-SN,,0.00,WeatherDisplay:10.37,2013-03-12 01:39:00,
2013-03-11 20:44:00,30.5,30.5,29.68,NW,304,3.5,5.8,100,0.00,-SN,,0.00,WeatherDisplay:10.37,2013-03-12 01:44:00,
2013-03-11 20:49:00,30.4,30.4,29.68,NW,309,6.7,9.8,100,0.00,-SN,,0.00,WeatherDisplay:10.37,2013-03-12 01:49:00,
2013-03-11 20:54:00,30.3,30.3,29.68,West,280,6.2,10.4,100,0.00,-SN,,0.00,WeatherDisplay:10.37,2013-03-12 01:54:00,
2013-03-11 20:59:00,30.3,30.3,29.68,NW,321,4.8,10.4,100,0.00,-SN,,0.00,WeatherDisplay:10.37,2013-03-12 01:59:00,
2013-03-11 21:04:00,30.2,30.2,29.69,WNW,302,6.3,9.2,100,0.00,-SN,,0.00,WeatherDisplay:10.37,2013-03-12 02:04:00,
2013-03-11 21:09:00,30.4,30.4,29.69,WNW,300,4.5,9.8,100,0.00,-SN,,0.00,WeatherDisplay:10.37,2013-03-12 02:09:00,
2013-03-11 21:14:00,30.3,30.3,29.69,NW,304,7.9,13.8,100,0.00,-SN,,0.00,WeatherDisplay:10.37,2013-03-12 02:14:00,
2013-03-11 21:19:00,30.5,30.5,29.69,NW,315,2.4,8.5,100,0.00,-SN,,0.00,WeatherDisplay:10.37,2013-03-12 02:19:00,
2013-03-11 21:24:00,30.1,30.1,29.69,WNW,291,5.9,9.2,100,0.00,-SN,,0.00,WeatherDisplay:10.37,2013-03-12 02:24:00,
2013-03-11 21:29:00,30.2,30.2,29.69,NW,326,4.2,8.4,100,0.00,-SN,,0.00,WeatherDisplay:10.37,2013-03-12 02:29:00,
2013-03-11 21:34:00,30.2,30.2,29.69,SW,236,6.5,9.2,100,0.00,-SN,,0.00,WeatherDisplay:10.37,2013-03-12 02:34:00,
2013-03-11 21:39:00,30.1,30.1,29.70,WNW,287,5.1,13.8,100,0.00,-SN,,0.00,WeatherDisplay:10.37,2013-03-12 02:39:00,
2013-03-11 21:44:00,30.1,30.1,29.69,West,280,6.4,9.2,100,0.00,-SN,,0.00,WeatherDisplay:10.37,2013-03-12 02:44:00,
2013-03-11 21:49:00,30.0,30.0,29.70,WNW,291,5.9,12.7,100,0.00,-SN,,0.00,WeatherDisplay:10.37,2013-03-12 02:49:00,
2013-03-11 21:54:00,30.1,30.1,29.70,WSW,256,4.4,9.2,100,0.00,-SN,,0.00,WeatherDisplay:10.37,2013-03-12 02:54:00,
2013-03-11 21:59:00,29.9,29.9,29.70,West,266,7.0,9.6,100,0.00,-SN,,0.00,WeatherDisplay:10.37,2013-03-12 02:59:00,
2013-03-11 22:04:00,30.1,30.1,29.71,WNW,297,4.6,12.7,100,0.00,-SN,,0.00,WeatherDisplay:10.37,2013-03-12 03:04:00,
2013-03-11 22:09:00,29.7,29.7,29.71,WNW,288,6.6,13.8,100,0.00,-SN,,0.00,WeatherDisplay:10.37,2013-03-12 03:09:00,
2013-03-11 22:14:00,29.7,29.5,29.71,NW,312,8.1,17.3,99,0.00,-SN,,0.00,WeatherDisplay:10.37,2013-03-12 03:14:00,
2013-03-11 22:19:00,29.9,29.7,29.71,WNW,288,6.1,12.7,99,0.00,-SN,,0.00,WeatherDisplay:10.37,2013-03-12 03:19:00,
2013-03-11 22:24:00,29.8,29.6,29.72,NW,308,6.0,10.4,99,0.00,-SN,,0.00,WeatherDisplay:10.37,2013-03-12 03:24:00,
2013-03-11 22:29:00,29.7,29.7,29.72,NW,325,5.6,10.4,100,0.00,-SN,,0.00,WeatherDisplay:10.37,2013-03-12 03:29:00,
2013-03-11 22:34:00,29.5,29.5,29.72,WNW,287,7.5,11.5,100,0.00,-SN,,0.00,WeatherDisplay:10.37,2013-03-12 03:34:00,
2013-03-11 22:39:00,29.5,29.5,29.72,NW,311,5.7,9.2,100,0.00,-SN,,0.00,WeatherDisplay:10.37,2013-03-12 03:39:00,
2013-03-11 22:44:00,29.3,29.3,29.72,NW,322,8.6,9.2,100,0.00,-SN,,0.00,WeatherDisplay:10.37,2013-03-12 03:44:00,
2013-03-11 22:49:00,29.3,29.3,29.72,West,273,8.0,11.6,100,0.00,-SN,,0.00,WeatherDisplay:10.37,2013-03-12 03:49:00,
2013-03-11 22:54:00,29.4,29.4,29.72,WNW,288,5.3,11.5,100,0.00,-SN,,0.00,WeatherDisplay:10.37,2013-03-12 03:54:00,
2013-03-11 22:59:00,29.4,29.4,29.72,NNW,331,5.7,9.2,100,0.00,-SN,,0.00,WeatherDisplay:10.37,2013-03-12 03:59:00,
2013-03-11 23:00:00,29.3,29.3,29.72,NW,324,6.4,9.7,100,0.00,-SN,,0.00,WeatherDisplay:10.37,2013-03-12 04:00:00,
2013-03-11 23:05:00,29.3,29.3,29.72,NW,312,4.3,8.1,100,0.00,-SN,,0.00,WeatherDisplay:10.37,2013-03-12 04:05:00,
2013-03-11 23:10:00,29.3,29.3,29.72,NW,326,6.1,9.2,100,0.00,-SN,,0.00,WeatherDisplay:10.37,2013-03-12 04:10:00,
2013-03-11 23:15:00,29.2,29.2,29.73,North,4,5.8,10.4,100,0.00,-SN,,0.00,WeatherDisplay:10.37,2013-03-12 04:15:00,
2013-03-11 23:20:00,29.0,29.0,29.73,WSW,250,8.0,15.0,100,0.00,-SN,,0.00,WeatherDisplay:10.37,2013-03-12 04:20:00,
2013-03-11 23:25:00,29.0,28.8,29.73,North,350,9.4,15.1,99,0.00,-SN,,0.00,WeatherDisplay:10.37,2013-03-12 04:25:00,
2013-03-11 23:30:00,28.9,28.7,29.73,NW,318,5.2,8.1,99,0.00,-SN,,0.00,WeatherDisplay:10.37,2013-03-12 04:30:00,
2013-03-11 23:35:00,29.0,28.8,29.73,NW,307,3.7,11.5,99,0.00,-SN,,0.00,WeatherDisplay:10.37,2013-03-12 04:35:00,
2013-03-11 23:40:00,29.0,28.5,29.73,NW,312,5.4,9.2,98,0.00,-SN,,0.00,WeatherDisplay:10.37,2013-03-12 04:40:00,
2013-03-11 23:45:00,28.8,28.3,29.73,WNW,287,7.3,11.5,98,0.00,-SN,,0.00,WeatherDisplay:10.37,2013-03-12 04:45:00,
2013-03-11 23:50:00,28.7,28.2,29.73,WNW,295,6.9,10.4,98,0.00,-SN,,0.00,WeatherDisplay:10.37,2013-03-12 04:50:00,
2013-03-11 23:55:00,28.7,28.2,29.74,NW,324,5.8,9.2,98,0.00,-SN,,0.00,WeatherDisplay:10.37,2013-03-12 04:55:00,